This is the latest recevied weather packets stored in our database for station/object TA2NC-13. If no packets are shown the sender has not sent any weather packets the latest 10 day(s).
| Time | Temp. | Humidity | Pressure | Rain* | Wind** | Luminosity | Snow |
|---|---|---|---|---|---|---|---|
| 1777798200 | 8.89° C | 67% | 1010 hPa | 0 mm | - | - | - |
| 1777797600 | 8.89° C | 69% | 1010 hPa | 0 mm | - | - | - |
| 1777797000 | 8.89° C | 67% | 1010 hPa | 0 mm | - | - | - |
| 1777796400 | 8.89° C | 69% | 1010 hPa | 0 mm | - | - | - |
| 1777795800 | 8.89° C | 70% | 1010 hPa | 0 mm | - | - | - |
| 1777795200 | 8.33° C | 68% | 1010 hPa | 0 mm | - | - | - |
| 1777794600 | 8.33° C | 67% | 1010 hPa | 0 mm | - | - | - |
| 1777794000 | 8.89° C | 69% | 1010 hPa | 0 mm | - | - | - |
| 1777793400 | 8.33° C | 72% | 1010 hPa | 0 mm | - | - | - |
| 1777792800 | 7.78° C | 72% | 1010 hPa | 0 mm | - | - | - |
| 1777792200 | 7.22° C | 76% | 1010 hPa | 0 mm | - | - | - |
| 1777791600 | 6.67° C | 76% | 1010 hPa | 0 mm | - | - | - |
| 1777791001 | 6.67° C | 77% | 1010 hPa | 0 mm | - | - | - |
| 1777790400 | 6.11° C | 79% | 1010 hPa | 0 mm | - | - | - |
| 1777789800 | 6.11° C | 81% | 1010 hPa | 0 mm | - | - | - |
| 1777789200 | 5.56° C | 81% | 1010 hPa | 0 mm | - | - | - |
| 1777788600 | 5.56° C | 82% | 1010 hPa | 0 mm | - | - | - |
| 1777788000 | 5.56° C | 83% | 1010 hPa | 0 mm | - | - | - |
| 1777787400 | 5° C | 83% | 1010 hPa | 0 mm | - | - | - |
| 1777786800 | 5° C | 85% | 1010 hPa | 0 mm | - | - | - |
| 1777786200 | 4.44° C | 85% | 1010 hPa | 0 mm | - | - | - |
| 1777785601 | 4.44° C | 85% | 1010 hPa | 0 mm | - | - | - |
| 1777785000 | 4.44° C | 86% | 1010 hPa | 0 mm | - | - | - |
| 1777784400 | 3.89° C | 86% | 1010 hPa | 0 mm | - | - | - |
| 1777783800 | 3.89° C | 87% | 1010 hPa | 0 mm | - | - | - |
* Rain latest hour (hover to see other rain measurements)
** Current wind speed in m/s (hover to see current wind gust speed)